Time,TemperatureF,DewpointF,PressureIn,WindDirection,WindDirectionDegrees,WindSpeedMPH,WindSpeedGustMPH,Humidity,HourlyPrecipIn,Conditions,Clouds,dailyrainin,SoftwareType,DateUTC
2013-01-14 08:23:00,64.0,-99.9,30.04,West,259,12.0,18.0,-999,-99.99,,,-99.99,,2013-01-14 13:23:00,
2013-01-14 08:34:00,63.0,-99.9,30.04,West,259,13.0,20.0,-999,-99.99,,,-99.99,,2013-01-14 13:34:00,
2013-01-14 08:43:00,63.0,-99.9,30.05,WSW,252,11.0,17.0,-999,-99.99,,,-99.99,,2013-01-14 13:43:00,
2013-01-14 08:53:00,64.0,-99.9,30.06,West,261,13.0,18.0,-999,-99.99,,,-99.99,,2013-01-14 13:53:00,
2013-01-14 09:03:00,64.0,-99.9,30.06,West,261,13.0,18.0,-999,-99.99,,,-99.99,,2013-01-14 14:03:00,
2013-01-14 09:13:00,64.0,-99.9,30.06,West,261,13.0,18.0,-999,-99.99,,,-99.99,,2013-01-14 14:13:00,
2013-01-14 09:23:00,64.0,-99.9,30.06,West,261,13.0,18.0,-999,-99.99,,,-99.99,,2013-01-14 14:23:00,
2013-01-14 10:12:00,64.0,-99.9,30.07,West,262,12.0,15.0,-999,-99.99,,,-99.99,,2013-01-14 15:12:00,
2013-01-14 10:24:00,64.0,-99.9,30.09,West,278,12.0,15.0,-999,-99.99,,,-99.99,,2013-01-14 15:24:00,
2013-01-14 10:34:00,61.0,-99.9,30.09,WNW,288,11.0,13.0,-999,-99.99,,,-99.99,,2013-01-14 15:34:00,
2013-01-14 10:43:00,62.0,-99.9,30.09,WNW,285,10.0,13.0,-999,-99.99,,,-99.99,,2013-01-14 15:43:00,
2013-01-14 10:53:00,61.0,-99.9,30.09,NW,305,10.0,11.0,-999,-99.99,,,-99.99,,2013-01-14 15:53:00,
2013-01-14 11:03:00,60.0,-99.9,30.09,NW,308,11.0,12.0,-999,-99.99,,,-99.99,,2013-01-14 16:03:00,
2013-01-14 11:13:00,60.0,-99.9,30.09,WNW,299,11.0,11.0,-999,-99.99,,,-99.99,,2013-01-14 16:13:00,
2013-01-14 11:23:00,56.0,-99.9,30.10,NW,319,10.0,11.0,-999,-99.99,,,-99.99,,2013-01-14 16:23:00,
2013-01-14 11:33:00,56.0,-99.9,30.10,WNW,289,7.0,9.0,-999,-99.99,,,-99.99,,2013-01-14 16:33:00,
2013-01-14 11:43:00,58.0,-99.9,30.10,WNW,288,12.0,13.0,-999,-99.99,,,-99.99,,2013-01-14 16:43:00,
2013-01-14 11:53:00,61.0,-99.9,30.11,WNW,295,11.0,13.0,-999,-99.99,,,-99.99,,2013-01-14 16:53:00,
2013-01-14 12:03:00,51.0,-99.9,30.11,NNW,341,11.0,13.0,-999,-99.99,,,-99.99,,2013-01-14 17:03:00,
2013-01-14 12:12:00,50.0,-99.9,30.11,NNW,337,11.0,14.0,-999,-99.99,,,-99.99,,2013-01-14 17:12:00,
2013-01-14 12:23:00,51.0,-99.9,30.12,NNW,331,15.0,18.0,-999,-99.99,,,-99.99,,2013-01-14 17:23:00,
2013-01-14 12:34:00,52.0,-99.9,30.11,NNW,342,16.0,18.0,-999,-99.99,,,-99.99,,2013-01-14 17:34:00,
2013-01-14 12:44:00,52.0,-99.9,30.11,NNW,334,14.0,17.0,-999,-99.99,,,-99.99,,2013-01-14 17:44:00,
2013-01-14 12:54:00,52.0,-99.9,30.10,NNW,330,10.0,18.0,-999,-99.99,,,-99.99,,2013-01-14 17:54:00,
2013-01-14 13:03:00,52.0,-99.9,30.10,NNW,339,13.0,15.0,-999,-99.99,,,-99.99,,2013-01-14 18:03:00,
2013-01-14 13:13:00,52.0,-99.9,30.11,NW,317,12.0,13.0,-999,-99.99,,,-99.99,,2013-01-14 18:13:00,
2013-01-14 13:23:00,52.0,-99.9,30.12,NW,326,15.0,18.0,-999,-99.99,,,-99.99,,2013-01-14 18:23:00,
2013-01-14 13:33:00,52.0,-99.9,30.11,NNW,339,13.0,14.0,-999,-99.99,,,-99.99,,2013-01-14 18:33:00,
2013-01-14 13:43:00,52.0,-99.9,30.11,NNW,339,13.0,14.0,-999,-99.99,,,-99.99,,2013-01-14 18:43:00,
2013-01-14 13:53:00,51.0,-99.9,30.11,NW,321,11.0,12.0,-999,-99.99,,,-99.99,,2013-01-14 18:53:00,
2013-01-14 14:03:00,51.0,-99.9,30.12,NNW,327,14.0,18.0,-999,-99.99,,,-99.99,,2013-01-14 19:03:00,
2013-01-14 14:13:00,51.0,-99.9,30.11,NNW,333,13.0,16.0,-999,-99.99,,,-99.99,,2013-01-14 19:13:00,
2013-01-14 14:22:00,51.0,-99.9,30.12,NW,321,11.0,12.0,-999,-99.99,,,-99.99,,2013-01-14 19:22:00,
2013-01-14 14:30:00,51.0,-99.9,30.14,NNW,333,11.0,12.0,-999,-99.99,,,-99.99,,2013-01-14 19:30:00,
2013-01-14 14:33:00,50.0,-99.9,30.13,NW,314,10.0,11.0,-999,-99.99,,,-99.99,,2013-01-14 19:33:00,
2013-01-14 14:43:00,50.0,-99.9,30.14,NW,315,12.0,13.0,-999,-99.99,,,-99.99,,2013-01-14 19:43:00,
2013-01-14 14:53:00,50.0,-99.9,30.14,NW,315,12.0,13.0,-999,-99.99,,,-99.99,,2013-01-14 19:53:00,
2013-01-14 15:04:00,51.0,-99.9,30.14,NNW,333,11.0,12.0,-999,-99.99,,,-99.99,,2013-01-14 20:04:00,
2013-01-14 15:13:00,51.0,-99.9,30.14,NNW,333,11.0,12.0,-999,-99.99,,,-99.99,,2013-01-14 20:13:00,
2013-01-14 15:23:00,51.0,-99.9,30.14,NNW,333,11.0,12.0,-999,-99.99,,,-99.99,,2013-01-14 20:23:00,
2013-01-14 15:53:00,50.0,-99.9,30.15,NW,313,7.0,8.0,-999,-99.99,,,-99.99,,2013-01-14 20:53:00,
2013-01-14 16:03:00,50.0,-99.9,30.15,NW,320,8.0,10.0,-999,-99.99,,,-99.99,,2013-01-14 21:03:00,
2013-01-14 16:13:00,50.0,-99.9,30.16,NW,315,8.0,9.0,-999,-99.99,,,-99.99,,2013-01-14 21:13:00,
2013-01-14 16:23:00,50.0,-99.9,30.16,NW,315,8.0,9.0,-999,-99.99,,,-99.99,,2013-01-14 21:23:00,
2013-01-14 16:33:00,50.0,-99.9,30.16,NW,315,8.0,9.0,-999,-99.99,,,-99.99,,2013-01-14 21:33:00,
2013-01-14 16:43:00,51.0,-99.9,30.16,NNW,338,7.0,9.0,-999,-99.99,,,-99.99,,2013-01-14 21:43:00,
2013-01-14 16:53:00,50.0,-99.9,30.17,NNW,327,10.0,12.0,-999,-99.99,,,-99.99,,2013-01-14 21:53:00,
2013-01-14 17:03:00,50.0,-99.9,30.17,NNW,333,6.0,9.0,-999,-99.99,,,-99.99,,2013-01-14 22:03:00,
2013-01-14 17:13:00,50.0,-99.9,30.18,NW,316,6.0,7.0,-999,-99.99,,,-99.99,,2013-01-14 22:13:00,
2013-01-14 17:23:00,49.0,-99.9,30.18,WNW,295,5.0,6.0,-999,-99.99,,,-99.99,,2013-01-14 22:23:00,
2013-01-14 17:33:00,49.0,-99.9,30.19,NW,326,9.0,11.0,-999,-99.99,,,-99.99,,2013-01-14 22:33:00,
2013-01-14 17:43:00,49.0,-99.9,30.19,NW,320,10.0,12.0,-999,-99.99,,,-99.99,,2013-01-14 22:43:00,
2013-01-14 17:53:00,49.0,-99.9,30.19,NNW,334,9.0,11.0,-999,-99.99,,,-99.99,,2013-01-14 22:53:00,
2013-01-14 18:03:00,49.0,-99.9,30.18,NNW,342,7.0,9.0,-999,-99.99,,,-99.99,,2013-01-14 23:03:00,
2013-01-14 18:12:00,49.0,-99.9,30.18,North,356,8.0,10.0,-999,-99.99,,,-99.99,,2013-01-14 23:12:00,
2013-01-14 18:23:00,49.0,-99.9,30.16,NNE,29,4.0,5.0,-999,-99.99,,,-99.99,,2013-01-14 23:23:00,
2013-01-14 18:33:00,48.0,-99.9,30.16,ESE,119,1.0,2.0,-999,-99.99,,,-99.99,,2013-01-14 23:33:00,
2013-01-14 18:43:00,49.0,-99.9,30.16,NE,52,2.0,2.0,-999,-99.99,,,-99.99,,2013-01-14 23:43:00,
2013-01-14 18:53:00,48.0,-99.9,30.19,NW,314,8.0,10.0,-999,-99.99,,,-99.99,,2013-01-14 23:53:00,
2013-01-14 19:03:00,48.0,-99.9,30.18,NNW,345,7.0,9.0,-999,-99.99,,,-99.99,,2013-01-15 00:03:00,
2013-01-14 19:12:00,49.0,-99.9,30.19,NNW,333,10.0,13.0,-999,-99.99,,,-99.99,,2013-01-15 00:12:00,
2013-01-14 19:23:00,48.0,-99.9,30.19,NNW,331,7.0,9.0,-999,-99.99,,,-99.99,,2013-01-15 00:23:00,
2013-01-14 19:33:00,48.0,-99.9,30.19,WNW,290,3.0,4.0,-999,-99.99,,,-99.99,,2013-01-15 00:33:00,
2013-01-14 19:43:00,48.0,-99.9,30.19,WNW,301,9.0,9.0,-999,-99.99,,,-99.99,,2013-01-15 00:43:00,
2013-01-14 19:53:00,48.0,-99.9,30.20,NW,316,7.0,10.0,-999,-99.99,,,-99.99,,2013-01-15 00:53:00,
2013-01-14 20:02:00,48.0,-99.9,30.20,NNW,329,8.0,9.0,-999,-99.99,,,-99.99,,2013-01-15 01:02:00,
2013-01-14 20:12:00,48.0,-99.9,30.20,NNW,335,6.0,8.0,-999,-99.99,,,-99.99,,2013-01-15 01:12:00,
2013-01-14 20:23:00,48.0,-99.9,30.21,NW,320,8.0,9.0,-999,-99.99,,,-99.99,,2013-01-15 01:23:00,
2013-01-14 20:33:00,48.0,-99.9,30.21,NW,325,8.0,9.0,-999,-99.99,,,-99.99,,2013-01-15 01:33:00,
2013-01-14 20:43:00,48.0,-99.9,30.22,NNW,331,12.0,15.0,-999,-99.99,,,-99.99,,2013-01-15 01:43:00,
2013-01-14 20:53:00,48.0,-99.9,30.22,NNW,335,11.0,14.0,-999,-99.99,,,-99.99,,2013-01-15 01:53:00,
2013-01-14 21:03:00,47.0,-99.9,30.22,NNW,333,12.0,15.0,-999,-99.99,,,-99.99,,2013-01-15 02:03:00,
2013-01-14 21:12:00,47.0,-99.9,30.22,NNW,338,13.0,16.0,-999,-99.99,,,-99.99,,2013-01-15 02:12:00,
2013-01-14 21:23:00,47.0,-99.9,30.22,NNW,336,11.0,13.0,-999,-99.99,,,-99.99,,2013-01-15 02:23:00,
2013-01-14 21:33:00,48.0,-99.9,30.23,NNW,340,15.0,18.0,-999,-99.99,,,-99.99,,2013-01-15 02:33:00,
2013-01-14 21:43:00,47.0,-99.9,30.23,NNW,337,17.0,19.0,-999,-99.99,,,-99.99,,2013-01-15 02:43:00,
2013-01-14 21:53:00,47.0,-99.9,30.23,NNW,335,20.0,24.0,-999,-99.99,,,-99.99,,2013-01-15 02:53:00,
2013-01-14 22:03:00,47.0,-99.9,30.22,NNW,336,20.0,24.0,-999,-99.99,,,-99.99,,2013-01-15 03:03:00,
2013-01-14 22:12:00,47.0,-99.9,30.22,NNW,338,18.0,21.0,-999,-99.99,,,-99.99,,2013-01-15 03:12:00,
2013-01-14 22:22:00,46.0,-99.9,30.22,NNW,345,15.0,17.0,-999,-99.99,,,-99.99,,2013-01-15 03:22:00,
2013-01-14 22:33:00,46.0,-99.9,30.22,NNW,346,14.0,16.0,-999,-99.99,,,-99.99,,2013-01-15 03:33:00,
2013-01-14 22:43:00,46.0,-99.9,30.22,NNW,348,13.0,16.0,-999,-99.99,,,-99.99,,2013-01-15 03:43:00,
2013-01-14 22:53:00,46.0,-99.9,30.22,North,358,13.0,15.0,-999,-99.99,,,-99.99,,2013-01-15 03:53:00,
2013-01-14 23:03:00,46.0,-99.9,30.22,North,358,12.0,15.0,-999,-99.99,,,-99.99,,2013-01-15 04:03:00,
2013-01-14 23:12:00,46.0,-99.9,30.22,North,350,12.0,14.0,-999,-99.99,,,-99.99,,2013-01-15 04:12:00,
2013-01-14 23:22:00,46.0,-99.9,30.22,North,351,12.0,14.0,-999,-99.99,,,-99.99,,2013-01-15 04:22:00,
2013-01-14 23:33:00,46.0,-99.9,30.23,NNW,343,9.0,11.0,-999,-99.99,,,-99.99,,2013-01-15 04:33:00,
2013-01-14 23:43:00,46.0,-99.9,30.22,NNW,345,11.0,13.0,-999,-99.99,,,-99.99,,2013-01-15 04:43:00,
2013-01-14 23:53:00,45.0,-99.9,30.23,NNW,344,12.0,15.0,-999,-99.99,,,-99.99,,2013-01-15 04:53:00,